[[{"header":{"parameterUnit":"m.s-1","parameterCategory":1,"la1":30.2991,"la2":30.254,"lo1":-89.0895,"lo2":-89.0444,"dx":0.0017,"dy":0.0017,"nx":28,"ny":28,"refTime":"2023-02-06T09:00:00:Z","depth":0,"parameterNumber":2,"parameterNumberName":"U-component_of_WINDS"},"data":[0,0,0,0,0,0,0,0,0,0,0,0,0,0,0,0,0,0,0,0,0,0,0,0,0,0,0,0,0,0,0,0,0,0,0,0,0,0,0,0,0,0,0,0,0,0,0,0,0,0,0,0,0,0,0,0,0,0,-3.0186,-3.0185,0,-3.0121,-3.012,-3.0119,-3.0055,-3.0054,-3.0053,-3.0053,-2.9987,-2.9986,-2.9985,0,0,0,0,0,0,0,0,0,0,0,0,0,-3.0259,-3.0258,-3.0186,-3.0185,-3.0184,-3.0121,-3.012,-3.0119,-3.0055,-3.0054,-3.0053,-3.0052,-2.9988,-2.9986,-2.9985,0,0,0,0,0,0,0,0,0,0,0,0,0,-3.0214,-3.0257,-3.0186,-3.0145,-3.014,-3.0121,-3.012,-3.0119,-3.0055,-3.0054,-3.0053,-3.0052,-2.9988,-2.9986,-2.9985,-3.0001,0,0,-2.9981,-2.998,0,0,0,0,0,0,0,0,-3.0216,-3.0211,-3.0152,-3.0148,-3.0143,-3.0095,-3.0121,-3.0079,-3.0056,-3.0088,-3.0053,-3.0051,-3.0024,-3.002,-3.001,-2.9998,-2.9995,-2.9981,-2.998,-2.9979,-2.9979,0,0,0,0,0,0,0,-3.022,-3.0214,-3.016,-3.0151,-3.0145,-3.0131,-3.0123,-3.0113,-3.0064,-3.0085,-3.008,-3.0073,-3.0021,-3.0012,-3.0008,-2.9994,-2.9981,-2.9979,-2.9978,-2.9978,-2.9997,-2.9998,0,0,0,0,0,0,-3.0229,-3.0217,-3.0162,-3.0158,-3.0177,-3.013,-3.0122,-3.0111,-3.0064,-3.0055,-3.0074,-3.007,-3.0015,-3.001,-3.0006,-3.0024,-2.9979,-2.9978,-2.9977,-2.9996,-2.9997,-2.9999,0,0,0,0,0,0,-3.023,-3.0224,-3.0165,-3.0186,-3.0177,-3.013,-3.0119,-3.0111,-3.0101,-3.0056,-3.0047,-3.0073,-3.0014,-3.0008,-3.0004,-3.0021,-2.9977,-2.9976,-2.9994,-2.9996,-2.9998,-3.006,0,0,0,0,0,0,-3.0233,-3.0225,-3.023,-3.0187,-3.0176,-3.0163,-3.012,-3.011,-3.0098,-3.0093,-3.0052,-3.0044,-3.0012,-3.0006,-3.0002,-3.0018,-2.9975,-2.9992,-2.9995,-2.9997,-3.0056,-3.0064,-3.0071,0,0,0,0,0,-3.0236,-3.0249,-3.023,-3.0224,-3.0181,-3.0164,-3.0158,-3.012,-3.01,-3.0105,-3.0077,-3.0046,-3.002,-3.0006,-3.0001,-3.0017,-2.9991,-2.9994,-2.9997,-3.0053,-3.0063,-3.0071,0,0,0,0,0,0,-3.0295,-3.0243,-3.0221,-3.0221,-3.0198,-3.0153,-3.0158,-3.0131,-3.0113,-3.0108,-3.0062,-3.0054,-3.0056,-3.0036,-3.0022,-3.0033,-3.0001,-3.0004,-3.0046,-3.0054,-3.0061,-3.0067,-2.9973,0,0,0,0,0,-3.0309,-3.0298,-3.0253,-3.0258,-3.0247,-3.0205,-3.0196,-3.0169,-3.0143,-3.0133,-3.0104,-3.008,-3.0067,-3.0059,-3.0044,-3.0053,-3.0045,-3.0062,-3.0069,-3.0075,-3.0078,-3.0085,-3.0093,-3.0009,-3.0009,-3.0009,0,0,-3.0336,-3.0306,-3.0302,-3.0269,-3.0248,-3.024,-3.0197,-3.0189,-3.0184,-3.0132,-3.0127,-3.0105,-3.0076,-3.008,-3.008,-3.0063,-3.01,-3.0079,-3.0084,-3.0084,-3.0089,-3.0097,-3.0104,-3.0011,-3.0011,-3.001,0,0,-3.0381,-3.0357,-3.0359,-3.0339,-3.0308,-3.028,-3.0282,-3.0242,-3.0226,-3.022,-3.0182,-3.0175,-3.0152,-3.0135,-3.0122,-3.0166,-3.0138,-3.0162,-3.02,-3.0208,-3.0214,-3.022,-3.0238,-3.0245,-3.0165,-3.0165,-3.0165,0,-3.0419,-3.0405,-3.0364,-3.036,-3.0348,-3.0302,-3.0305,-3.0288,-3.0254,-3.0247,-3.0229,-3.0202,-3.0179,-3.0179,-3.0191,-3.0181,-3.0183,-3.0167,-3.0216,-3.0222,-3.0226,-3.0244,-3.025,-3.0169,-3.0168,-3.0168,-3.0167,0,-3.0454,-3.0445,-3.0451,-3.0421,-3.0409,-3.0409,-3.037,-3.0364,-3.0339,-3.0314,-3.0311,-3.0282,-3.0263,-3.0261,-3.0235,-3.0259,-3.025,-3.0225,-3.0193,-3.0239,-3.0254,-3.026,-3.0173,-3.0172,-3.0171,-3.017,0,0,-3.0534,-3.0483,-3.0486,-3.0473,-3.0437,-3.043,-3.0429,-3.041,-3.0407,-3.0385,-3.0385,-3.0369,-3.0347,-3.0333,-3.0306,-3.0312,-3.0353,-3.0286,-3.0285,-3.0302,-3.0381,-3.0402,-3.041,-3.0334,-3.0335,-3.0336,-3.0384,0,-3.0575,-3.057,-3.0536,-3.0542,-3.0535,-3.0492,-3.0492,-3.0471,-3.0449,-3.0441,-3.0416,-3.0407,-3.0376,-3.0368,-3.0372,-3.0347,-3.0368,-3.0343,-3.0336,-3.0336,-3.0346,-3.0417,-3.0438,-3.0486,-3.039,-3.0391,-3.0391,0,-3.0622,-3.0605,-3.0611,-3.0578,-3.0574,-3.0574,-3.0556,-3.0548,-3.0525,-3.0508,-3.0495,-3.0465,-3.0465,-3.0434,-3.0434,-3.0418,-3.0413,-3.0401,-3.0402,-3.0401,-3.0368,-3.0421,-3.0499,-3.0508,-3.04,-3.0399,-3.0399,0,-3.0683,-3.0662,-3.0663,-3.0653,-3.0614,-3.0616,-3.06,-3.0575,-3.0567,-3.0552,-3.0547,-3.0531,-3.0523,-3.0513,-3.0481,-3.0461,-3.0486,-3.0452,-3.0475,-3.0476,-3.0483,-3.0483,-3.0564,-3.0477,-3.0477,-3.0476,-3.0476,0,-3.0733,-3.0739,-3.0691,-3.0692,-3.0699,-3.0659,-3.0667,-3.0647,-3.0626,-3.0625,-3.0586,-3.0586,-3.0542,-3.0538,-3.0513,-3.0519,-3.0515,-3.0503,-3.0497,-3.0508,-3.051,-3.0505,-3.0502,-3.0478,-3.0478,-3.0477,-3.0477,0,-3.0803,-3.077,-3.077,-3.0734,-3.0725,-3.0732,-3.0702,-3.0703,-3.0679,-3.0678,-3.0675,-3.0638,-3.0631,-3.0598,-3.0583,-3.0566,-3.0582,-3.0567,-3.059,-3.0586,-3.0612,-3.0611,-3.0695,-3.0705,-3.0609,-3.061,-3.0611,0,-3.0838,-3.0842,-3.0807,-3.0804,-3.079,-3.0783,-3.0776,-3.0739,-3.0733,-3.0709,-3.0713,-3.0703,-3.0693,-3.0684,-3.0657,-3.0647,-3.0633,-3.0663,-3.0631,-3.0644,-3.0637,-3.0638,-3.064,-3.0671,-3.0672,-3.0673,-3.0674,0,-3.0905,-3.0889,-3.088,-3.0866,-3.0859,-3.0846,-3.083,-3.083,-3.0789,-3.0785,-3.0777,-3.077,-3.0756,-3.0747,-3.0733,-3.0718,-3.0691,-3.0684,-3.0689,-3.0701,-3.0716,-3.0712,-3.0611,-3.0682,-3.0682,-3.0681,-3.068,-3.068,-3.0959,-3.0963,-3.094,-3.0932,-3.0917,-3.0905,-3.0905,-3.0883,-3.0876,-3.0861,-3.084,-3.0837,-3.0817,-3.0794,-3.0782,-3.078,-3.0764,-3.0771,-3.0773,-3.0776,-3.0783,-3.0715,-3.0777,-3.0777,-3.0777,-3.0776,-3.0776,0,-3.1027,-3.1011,-3.1004,-3.0985,-3.098,-3.0954,-3.0937,-3.0935,-3.0932,-3.0916,-3.0908,-3.0902,-3.0894,-3.0868,-3.0859,-3.0863,-3.085,-3.0862,-3.0862,-3.086,-3.0796,-3.0794,-3.0872,-3.0872,-3.0872,-3.0872,-3.0872,-3.0872,-3.1061,-3.1066,-3.1049,-3.1048,-3.1032,-3.1029,-3.1022,-3.1011,-3.0999,-3.0993,-3.0988,-3.097,-3.0951,-3.0941,-3.0934,-3.0927,-3.0926,-3.0943,-3.0932,-3.0873,-3.0864,-3.0855,-3.0853,-3.0942,-3.0942,-3.0996,-3.0996,-3.0997]},{"header":{"parameterUnit":"m.s-1","parameterCategory":1,"la1":30.2991,"la2":30.254,"lo1":-89.0895,"lo2":-89.0444,"dx":0.0017,"dy":0.0017,"nx":28,"ny":28,"refTime":"2023-02-06T09:00:00:Z","depth":0,"parameterNumber":3,"parameterNumberName":"V-component_of_WINDS"},"data":[0,0,0,0,0,0,0,0,0,0,0,0,0,0,0,0,0,0,0,0,0,0,0,0,0,0,0,0,0,0,0,0,0,0,0,0,0,0,0,0,0,0,0,0,0,0,0,0,0,0,0,0,0,0,0,0,0,0,0.6247,0.6247,0,0.6209,0.6209,0.6208,0.6245,0.6246,0.6248,0.6249,0.6206,0.6204,0.6201,0,0,0,0,0,0,0,0,0,0,0,0,0,0.635,0.6348,0.6247,0.6247,0.6246,0.6209,0.6209,0.6208,0.6245,0.6246,0.6248,0.625,0.6207,0.6204,0.6201,0,0,0,0,0,0,0,0,0,0,0,0,0,0.6308,0.6347,0.6248,0.626,0.6261,0.6209,0.6209,0.6208,0.6244,0.6246,0.6249,0.6251,0.6208,0.6204,0.6201,0.6133,0,0,0.6189,0.6187,0,0,0,0,0,0,0,0,0.631,0.6304,0.6259,0.6259,0.626,0.6234,0.6229,0.6183,0.6244,0.625,0.6249,0.6252,0.6213,0.6209,0.6197,0.6131,0.6129,0.6189,0.6186,0.6185,0.6184,0,0,0,0,0,0,0,0.6313,0.6306,0.6232,0.6258,0.6259,0.6267,0.6264,0.622,0.622,0.625,0.6253,0.6248,0.6214,0.6201,0.6196,0.6129,0.6189,0.6185,0.6183,0.6182,0.6006,0.6003,0,0,0,0,0,0,0.6315,0.6308,0.6233,0.6231,0.6291,0.6263,0.626,0.624,0.622,0.622,0.6246,0.625,0.6206,0.6201,0.6195,0.6115,0.6185,0.6181,0.6179,0.6008,0.6005,0.6002,0,0,0,0,0,0,0.6317,0.6308,0.6235,0.627,0.6262,0.6259,0.6237,0.6238,0.6225,0.6217,0.6217,0.6232,0.6208,0.62,0.6149,0.6114,0.618,0.6176,0.6011,0.6007,0.6004,0.5953,0,0,0,0,0,0,0.632,0.6308,0.6283,0.6269,0.626,0.619,0.6235,0.6236,0.6219,0.6223,0.6205,0.6204,0.6209,0.6154,0.6145,0.611,0.6173,0.6014,0.6009,0.6005,0.5958,0.5948,0.594,0,0,0,0,0,0.6323,0.6269,0.6282,0.6272,0.6228,0.6187,0.6182,0.619,0.6216,0.619,0.6185,0.6204,0.6119,0.6148,0.6138,0.6101,0.6016,0.6011,0.6005,0.5962,0.595,0.594,0,0,0,0,0,0,0.6277,0.6268,0.6281,0.6222,0.6205,0.6194,0.6161,0.6177,0.6152,0.6157,0.6167,0.6162,0.6108,0.61,0.6132,0.6035,0.6072,0.6064,0.6042,0.6031,0.6022,0.6024,0.617,0,0,0,0,0,0.6261,0.6229,0.6223,0.617,0.6162,0.6163,0.6146,0.6154,0.6136,0.6129,0.6121,0.6103,0.6072,0.6051,0.6023,0.5958,0.5954,0.5927,0.5918,0.5911,0.5904,0.5869,0.5856,0.5985,0.5985,0.5985,0,0,0.6225,0.6216,0.6195,0.6161,0.6149,0.6116,0.6157,0.612,0.6095,0.6123,0.6074,0.6067,0.6048,0.5989,0.5963,0.5981,0.5868,0.5904,0.5898,0.5895,0.5862,0.585,0.5839,0.5981,0.5982,0.5982,0,0,0.6143,0.6133,0.6089,0.6077,0.606,0.6061,0.605,0.6037,0.6034,0.5985,0.6006,0.5977,0.5923,0.5909,0.5894,0.5809,0.5825,0.5799,0.5751,0.5717,0.5707,0.5698,0.5666,0.5655,0.5792,0.5792,0.5792,0,0.61,0.6052,0.6064,0.6026,0.601,0.6036,0.5991,0.5978,0.5952,0.594,0.5961,0.5896,0.5884,0.5822,0.5802,0.579,0.5777,0.58,0.5708,0.5699,0.5691,0.5661,0.5649,0.5789,0.5789,0.579,0.579,0,0.6,0.5966,0.5932,0.5908,0.5888,0.5846,0.5852,0.5831,0.5841,0.584,0.579,0.5778,0.5747,0.5734,0.5742,0.5673,0.5684,0.5706,0.5743,0.5675,0.5647,0.5636,0.5784,0.5786,0.5787,0.5787,0,0,0.5885,0.587,0.5857,0.5846,0.583,0.5803,0.5763,0.5735,0.5716,0.5697,0.5663,0.5619,0.5639,0.5623,0.5631,0.5601,0.5533,0.5626,0.5626,0.5608,0.5455,0.5437,0.5424,0.5545,0.5542,0.5541,0.5456,0,0.5802,0.5733,0.5744,0.5677,0.5645,0.5671,0.5636,0.5622,0.562,0.5593,0.5591,0.5559,0.5589,0.5579,0.5551,0.5547,0.5502,0.5554,0.5511,0.551,0.5514,0.5409,0.539,0.5311,0.5445,0.5444,0.5442,0,0.5695,0.5674,0.5604,0.5593,0.558,0.5549,0.5524,0.5498,0.5482,0.5484,0.5466,0.548,0.5439,0.5478,0.5421,0.5456,0.544,0.5435,0.5433,0.5427,0.547,0.54,0.5286,0.5273,0.5425,0.5427,0.5428,0,0.5617,0.5571,0.5524,0.5514,0.55,0.5478,0.5471,0.5458,0.544,0.5418,0.5407,0.538,0.5365,0.5344,0.535,0.5378,0.5292,0.5331,0.529,0.529,0.5269,0.527,0.5149,0.5261,0.5261,0.5262,0.5262,0,0.5521,0.5477,0.5489,0.5459,0.5411,0.5424,0.5375,0.5371,0.536,0.5329,0.535,0.5321,0.5331,0.5303,0.5307,0.5259,0.5252,0.5251,0.5252,0.5248,0.5248,0.5236,0.5241,0.5258,0.5259,0.526,0.526,0,0.5425,0.5431,0.5381,0.5373,0.537,0.5335,0.5328,0.53,0.5301,0.5262,0.5254,0.5255,0.5223,0.5227,0.5191,0.5194,0.5133,0.5142,0.5139,0.514,0.5099,0.5102,0.4964,0.4947,0.5072,0.507,0.5069,0,0.5363,0.533,0.5319,0.5301,0.5293,0.5264,0.5247,0.5259,0.524,0.522,0.5194,0.5164,0.514,0.5087,0.5084,0.5056,0.5064,0.5018,0.5059,0.5056,0.5061,0.5063,0.5059,0.5008,0.5007,0.5006,0.5005,0,0.5252,0.5257,0.5232,0.5208,0.5188,0.5169,0.5153,0.5136,0.5147,0.5124,0.5092,0.5074,0.5038,0.5007,0.4981,0.4974,0.499,0.4992,0.4981,0.4975,0.4974,0.4973,0.5115,0.4995,0.4996,0.4997,0.4997,0.4998,0.517,0.5142,0.513,0.5102,0.5091,0.5076,0.5049,0.5048,0.5022,0.4994,0.5003,0.4966,0.4952,0.492,0.4909,0.488,0.4897,0.4881,0.4876,0.4872,0.4866,0.4981,0.4875,0.4876,0.4876,0.4876,0.4876,0,0.5059,0.5053,0.5027,0.5004,0.4982,0.5003,0.4986,0.4965,0.4933,0.4919,0.4896,0.4859,0.483,0.4826,0.4798,0.4775,0.4782,0.4767,0.4768,0.4766,0.4853,0.4865,0.4762,0.4762,0.4762,0.4762,0.4762,0.4762,0.4998,0.4952,0.4956,0.4904,0.4899,0.4864,0.4853,0.4838,0.4827,0.4786,0.4762,0.476,0.475,0.4722,0.4696,0.4695,0.4683,0.4665,0.4667,0.4748,0.476,0.4771,0.4782,0.4663,0.4663,0.4582,0.4581,0.4581]}]]